[[{"header":{"parameterUnit":"m.s-1","parameterCategory":1,"la1":30.2991,"la2":30.254,"lo1":-89.0895,"lo2":-89.0444,"dy":0.0017,"dx":0.0017,"nx":28,"ny":28,"refTime":"2024-06-19T03:00:00:Z","depth":0,"parameterNumber":2,"parameterNumberName":"U-component_of_WINDS"},"data":[0,0,0,0,0,0,0,0,0,0,0,0,0,0,0,0,0,0,0,0,0,0,0,0,0,0,0,0,0,0,0,0,0,0,0,0,0,0,0,0,0,0,0,0,0,0,0,0,0,0,0,0,0,0,0,0,0,0,-9.3969,-9.3969,0,-9.4009,-9.4009,-9.401,-9.3819,-9.3814,-9.3808,-9.3803,-9.3844,-9.385,-9.3856,0,0,0,0,0,0,0,0,0,0,0,0,0,-9.3726,-9.3732,-9.3968,-9.3969,-9.397,-9.4009,-9.4009,-9.401,-9.382,-9.3813,-9.3807,-9.38,-9.3842,-9.3849,-9.3856,0,0,0,0,0,0,0,0,0,0,0,0,0,-9.3806,-9.3733,-9.3968,-9.388,-9.3872,-9.4009,-9.4009,-9.401,-9.3822,-9.3813,-9.3805,-9.3797,-9.3839,-9.3848,-9.3857,-9.4081,0,0,-9.3886,-9.389,0,0,0,0,0,0,0,0,-9.3801,-9.3815,-9.3892,-9.3886,-9.3878,-9.39,-9.3938,-9.4034,-9.3824,-9.3841,-9.3803,-9.3793,-9.3869,-9.3876,-9.3901,-9.4083,-9.4085,-9.3887,-9.3893,-9.3897,-9.3899,0,0,0,0,0,0,0,-9.3796,-9.3812,-9.3984,-9.3893,-9.3885,-9.3837,-9.3839,-9.3956,-9.3901,-9.3839,-9.3825,-9.3832,-9.3864,-9.3893,-9.3901,-9.4085,-9.3887,-9.3895,-9.3901,-9.3904,-9.4453,-9.4461,0,0,0,0,0,0,-9.3802,-9.3809,-9.3983,-9.3985,-9.3818,-9.3849,-9.3851,-9.3902,-9.3899,-9.3891,-9.3839,-9.3823,-9.3881,-9.389,-9.3902,-9.4163,-9.3896,-9.3905,-9.3911,-9.4444,-9.4455,-9.4464,0,0,0,0,0,0,-9.3798,-9.382,-9.3981,-9.3893,-9.391,-9.3861,-9.392,-9.3907,-9.3935,-9.39,-9.3889,-9.3879,-9.3875,-9.3888,-9.4038,-9.4162,-9.3909,-9.3918,-9.4433,-9.4447,-9.4459,-9.4689,0,0,0,0,0,0,-9.3792,-9.3819,-9.3904,-9.3897,-9.3916,-9.4118,-9.3928,-9.3913,-9.3952,-9.3932,-9.3934,-9.3927,-9.3869,-9.4025,-9.4047,-9.417,-9.3925,-9.4422,-9.4439,-9.4455,-9.467,-9.4708,-9.4741,0,0,0,0,0,-9.3784,-9.3967,-9.3909,-9.3932,-9.4021,-9.4126,-9.4136,-9.4067,-9.3963,-9.4048,-9.4025,-9.3927,-9.4145,-9.4042,-9.4065,-9.4193,-9.4414,-9.4434,-9.4454,-9.4654,-9.4701,-9.474,0,0,0,0,0,0,-9.399,-9.3964,-9.39,-9.4086,-9.411,-9.4093,-9.4198,-9.4119,-9.4171,-9.415,-9.4061,-9.4063,-9.4228,-9.4225,-9.4111,-9.4409,-9.4261,-9.4287,-9.4405,-9.4449,-9.4485,-9.4482,-9.3933,0,0,0,0,0,-9.4057,-9.4145,-9.4117,-9.4284,-9.4299,-9.4248,-9.429,-9.4235,-9.4255,-9.4264,-9.4251,-9.4275,-9.4348,-9.4399,-9.4464,-9.4669,-9.4666,-9.4768,-9.4804,-9.4833,-9.4856,-9.4964,-9.5009,-9.453,-9.453,-9.453,0,0,-9.4197,-9.4193,-9.4254,-9.4326,-9.4337,-9.443,-9.4257,-9.4362,-9.4429,-9.4279,-9.442,-9.4412,-9.4432,-9.461,-9.4688,-9.4613,-9.4988,-9.4859,-9.4883,-9.489,-9.4989,-9.5035,-9.5075,-9.4544,-9.4541,-9.4539,0,0,-9.4498,-9.4505,-9.4644,-9.466,-9.4679,-9.4643,-9.4677,-9.4673,-9.4662,-9.4802,-9.4692,-9.477,-9.4899,-9.4918,-9.4945,-9.5254,-9.5166,-9.5278,-9.5464,-9.5571,-9.5608,-9.5641,-9.5751,-9.5792,-9.5301,-9.5302,-9.5302,0,-9.4669,-9.4804,-9.4726,-9.4839,-9.4874,-9.4743,-9.4883,-9.4902,-9.4942,-9.4969,-9.4884,-9.5043,-9.5048,-9.5228,-9.5304,-9.533,-9.5366,-9.5277,-9.5609,-9.5641,-9.5671,-9.5775,-9.5817,-9.5316,-9.5314,-9.5313,-9.5311,0,-9.5013,-9.5108,-9.5219,-9.5262,-9.5308,-9.5435,-9.5376,-9.5433,-9.5374,-9.5347,-9.5491,-9.5492,-9.5555,-9.5594,-9.5537,-9.5767,-9.572,-9.5624,-9.5473,-9.5731,-9.5828,-9.5867,-9.5335,-9.533,-9.5326,-9.5323,0,0,-9.5444,-9.5443,-9.5485,-9.5503,-9.5515,-9.5587,-9.5708,-9.577,-9.5821,-9.5853,-9.5952,-9.6064,-9.5975,-9.6006,-9.595,-9.6043,-9.6288,-9.5935,-9.5934,-9.6,-9.6542,-9.6614,-9.6661,-9.623,-9.6237,-9.6243,-9.654,0,-9.5739,-9.5945,-9.5879,-9.6087,-9.6174,-9.6052,-9.6156,-9.6175,-9.6154,-9.6224,-9.62,-9.6281,-9.6158,-9.6175,-9.6262,-9.624,-9.6396,-9.6218,-9.6321,-9.6325,-9.6319,-9.6711,-9.6788,-9.7068,-9.6577,-9.6583,-9.6588,0,-9.6111,-9.6158,-9.6376,-9.6374,-9.6408,-9.6503,-9.6555,-9.6624,-9.6643,-9.6621,-9.6656,-9.658,-9.6698,-9.6548,-9.6709,-9.6589,-9.6627,-9.6623,-9.6632,-9.6639,-9.6472,-9.6728,-9.7155,-9.7198,-9.6646,-9.6642,-9.6638,0,-9.6404,-9.6522,-9.6667,-9.6686,-9.6688,-9.6758,-9.6761,-9.6772,-9.6814,-9.686,-9.6886,-9.6945,-9.6977,-9.7025,-9.6967,-9.6863,-9.7137,-9.6981,-9.7121,-9.7123,-9.7184,-9.7181,-9.7623,-9.721,-9.7209,-9.7209,-9.7208,0,-9.674,-9.6877,-9.6799,-9.6888,-9.7039,-9.6962,-9.7113,-9.7102,-9.7114,-9.7198,-9.7096,-9.7178,-9.7097,-9.7172,-9.7127,-9.7267,-9.7283,-9.7268,-9.7254,-9.7277,-9.7279,-9.73,-9.7279,-9.722,-9.7217,-9.7215,-9.7213,0,-9.7092,-9.7045,-9.7195,-9.7184,-9.7185,-9.7296,-9.7286,-9.7369,-9.734,-9.7449,-9.747,-9.7425,-9.7508,-9.7455,-9.7538,-9.7508,-9.7692,-9.7651,-9.7686,-9.7675,-9.7817,-9.7805,-9.8288,-9.8347,-9.7897,-9.7902,-9.7905,0,-9.7309,-9.7412,-9.7413,-9.7463,-9.7473,-9.7555,-9.7597,-9.7525,-9.7573,-9.7603,-9.7682,-9.7756,-9.7811,-9.7949,-9.7923,-9.7987,-9.7947,-9.8112,-9.7956,-9.7975,-9.7949,-9.7944,-9.7953,-9.8144,-9.8149,-9.8153,-9.8157,0,-9.77,-9.7672,-9.7737,-9.7795,-9.7849,-9.7891,-9.7924,-9.7971,-9.7898,-9.7958,-9.8041,-9.8084,-9.817,-9.8244,-9.8297,-9.83,-9.8218,-9.8206,-9.8242,-9.8266,-9.8281,-9.8275,-9.7771,-9.8195,-9.8192,-9.8189,-9.8187,-9.8185,-9.7991,-9.8077,-9.8091,-9.8167,-9.8185,-9.8219,-9.8295,-9.8276,-9.8345,-9.8409,-9.8362,-9.8461,-9.8477,-9.854,-9.8554,-9.863,-9.8563,-9.8615,-9.8628,-9.8642,-9.8661,-9.827,-9.864,-9.8639,-9.8637,-9.8637,-9.8636,0,-9.8376,-9.8379,-9.845,-9.85,-9.856,-9.8477,-9.851,-9.8566,-9.8654,-9.8677,-9.8733,-9.8829,-9.8901,-9.8882,-9.8947,-9.9012,-9.8975,-9.9031,-9.9025,-9.9027,-9.8718,-9.868,-9.9059,-9.9059,-9.9059,-9.9059,-9.9059,-9.9059,-9.8583,-9.8724,-9.8698,-9.8847,-9.8848,-9.8945,-9.8971,-9.9001,-9.9019,-9.9131,-9.919,-9.9177,-9.9183,-9.9247,-9.931,-9.9302,-9.933,-9.9401,-9.938,-9.9091,-9.9049,-9.9009,-9.8973,-9.9407,-9.9408,-9.9682,-9.9684,-9.9686]},{"header":{"parameterUnit":"m.s-1","parameterCategory":1,"la1":30.2991,"la2":30.254,"lo1":-89.0895,"lo2":-89.0444,"dy":0.0017,"dx":0.0017,"nx":28,"ny":28,"refTime":"2024-06-19T03:00:00:Z","depth":0,"parameterNumber":3,"parameterNumberName":"V-component_of_WINDS"},"data":[0,0,0,0,0,0,0,0,0,0,0,0,0,0,0,0,0,0,0,0,0,0,0,0,0,0,0,0,0,0,0,0,0,0,0,0,0,0,0,0,0,0,0,0,0,0,0,0,0,0,0,0,0,0,0,0,0,0,-1.3751,-1.3751,0,-1.3706,-1.3706,-1.3705,-1.3649,-1.3648,-1.3647,-1.3646,-1.3601,-1.3601,-1.36,0,0,0,0,0,0,0,0,0,0,0,0,0,-1.3789,-1.3788,-1.3751,-1.3751,-1.375,-1.3706,-1.3706,-1.3705,-1.3649,-1.3648,-1.3647,-1.3646,-1.3601,-1.3601,-1.36,0,0,0,0,0,0,0,0,0,0,0,0,0,-1.3761,-1.3788,-1.3751,-1.3717,-1.3713,-1.3706,-1.3706,-1.3705,-1.3649,-1.3648,-1.3646,-1.3645,-1.3601,-1.3601,-1.36,-1.3624,0,0,-1.3599,-1.3599,0,0,0,0,0,0,0,0,-1.3763,-1.376,-1.3722,-1.3719,-1.3715,-1.3682,-1.3702,-1.3678,-1.3649,-1.3674,-1.3646,-1.3644,-1.3629,-1.3626,-1.3621,-1.3622,-1.362,-1.3599,-1.3598,-1.3598,-1.3598,0,0,0,0,0,0,0,-1.3765,-1.3761,-1.3733,-1.3722,-1.3718,-1.3703,-1.3698,-1.3697,-1.366,-1.3671,-1.3667,-1.3662,-1.3627,-1.3621,-1.3619,-1.3619,-1.3599,-1.3598,-1.3598,-1.3598,-1.3636,-1.3637,0,0,0,0,0,0,-1.3772,-1.3763,-1.3735,-1.3732,-1.3736,-1.3704,-1.3698,-1.3694,-1.3659,-1.3653,-1.3664,-1.366,-1.3623,-1.362,-1.3618,-1.3641,-1.3598,-1.3598,-1.3597,-1.3634,-1.3636,-1.3637,0,0,0,0,0,0,-1.3773,-1.377,-1.3737,-1.3746,-1.3741,-1.3705,-1.3701,-1.3694,-1.3688,-1.3653,-1.3647,-1.3665,-1.3622,-1.3618,-1.3622,-1.3639,-1.3597,-1.3597,-1.3633,-1.3635,-1.3637,-1.3691,0,0,0,0,0,0,-1.3774,-1.377,-1.3779,-1.3747,-1.3741,-1.3742,-1.3702,-1.3694,-1.3687,-1.3682,-1.3653,-1.3647,-1.362,-1.3623,-1.3622,-1.3638,-1.3597,-1.3631,-1.3634,-1.3636,-1.3687,-1.3694,-1.3701,0,0,0,0,0,-1.3776,-1.3797,-1.378,-1.3777,-1.3751,-1.3744,-1.374,-1.3709,-1.3689,-1.3697,-1.3674,-1.3648,-1.3638,-1.3624,-1.3622,-1.3638,-1.363,-1.3633,-1.3636,-1.3684,-1.3693,-1.37,0,0,0,0,0,0,-1.3833,-1.3792,-1.3773,-1.3784,-1.3768,-1.3734,-1.3744,-1.3719,-1.3708,-1.3704,-1.3666,-1.366,-1.3668,-1.3654,-1.3639,-1.3658,-1.363,-1.3632,-1.3667,-1.3675,-1.3682,-1.3685,-1.3596,0,0,0,0,0,-1.3847,-1.3844,-1.3809,-1.3822,-1.3815,-1.3781,-1.3776,-1.3754,-1.3735,-1.3728,-1.3706,-1.3689,-1.3681,-1.3678,-1.3669,-1.3685,-1.3677,-1.3695,-1.3701,-1.3707,-1.371,-1.3715,-1.3722,-1.3647,-1.3647,-1.3647,0,0,-1.3876,-1.3853,-1.3854,-1.3833,-1.3817,-1.3815,-1.3775,-1.3775,-1.3772,-1.3728,-1.373,-1.3713,-1.3692,-1.3701,-1.3704,-1.3689,-1.3728,-1.3711,-1.3715,-1.3715,-1.3719,-1.3726,-1.3732,-1.3649,-1.3649,-1.3649,0,0,-1.3927,-1.391,-1.3918,-1.3903,-1.388,-1.3857,-1.3859,-1.3828,-1.3815,-1.3816,-1.3782,-1.3779,-1.3768,-1.3753,-1.3745,-1.3788,-1.3763,-1.3787,-1.3821,-1.3827,-1.3833,-1.3838,-1.3852,-1.3858,-1.379,-1.379,-1.379,0,-1.3965,-1.396,-1.3926,-1.3927,-1.3918,-1.3877,-1.3885,-1.3872,-1.3848,-1.3842,-1.3826,-1.3809,-1.3792,-1.3797,-1.3807,-1.3802,-1.3803,-1.379,-1.3835,-1.3839,-1.3843,-1.3857,-1.3862,-1.3793,-1.3792,-1.3792,-1.3792,0,-1.4009,-1.4005,-1.4015,-1.3991,-1.3984,-1.3989,-1.3955,-1.3951,-1.3929,-1.3908,-1.3909,-1.3886,-1.3872,-1.3871,-1.385,-1.3873,-1.3864,-1.3842,-1.3812,-1.3854,-1.3866,-1.3871,-1.3797,-1.3796,-1.3795,-1.3794,0,0,-1.4095,-1.4051,-1.4055,-1.4043,-1.4013,-1.401,-1.4012,-1.3997,-1.3995,-1.3979,-1.3979,-1.397,-1.3948,-1.3938,-1.3915,-1.392,-1.3954,-1.3897,-1.3896,-1.3907,-1.3976,-1.3993,-1.3999,-1.3937,-1.3938,-1.3939,-1.3978,0,-1.414,-1.4141,-1.4109,-1.4119,-1.4115,-1.4075,-1.4077,-1.4059,-1.4038,-1.4032,-1.401,-1.4003,-1.3976,-1.3969,-1.3973,-1.395,-1.3968,-1.3947,-1.3937,-1.3937,-1.3943,-1.4005,-1.4023,-1.4061,-1.3982,-1.3983,-1.3984,0,-1.4192,-1.4178,-1.4187,-1.4155,-1.4152,-1.4155,-1.4138,-1.4132,-1.411,-1.4095,-1.4083,-1.4056,-1.4056,-1.4028,-1.4026,-1.4013,-1.4007,-1.3995,-1.3995,-1.3993,-1.3962,-1.4004,-1.4072,-1.4077,-1.3991,-1.399,-1.399,0,-1.4253,-1.4236,-1.4239,-1.423,-1.4193,-1.4195,-1.418,-1.4157,-1.415,-1.4135,-1.4129,-1.4115,-1.4107,-1.4097,-1.4066,-1.4049,-1.4067,-1.4037,-1.4054,-1.4055,-1.4059,-1.4059,-1.4127,-1.4057,-1.4057,-1.4057,-1.4057,0,-1.4305,-1.4312,-1.4265,-1.4267,-1.4273,-1.4236,-1.4243,-1.4225,-1.4204,-1.4201,-1.4166,-1.4164,-1.4124,-1.4117,-1.4093,-1.4094,-1.4091,-1.4079,-1.4072,-1.4081,-1.4083,-1.4076,-1.4073,-1.4059,-1.4058,-1.4058,-1.4058,0,-1.4374,-1.4343,-1.4343,-1.4308,-1.4299,-1.4305,-1.4275,-1.4275,-1.4252,-1.4248,-1.4245,-1.421,-1.42,-1.4168,-1.4151,-1.4134,-1.4143,-1.4131,-1.415,-1.4145,-1.4163,-1.4162,-1.4228,-1.4235,-1.4162,-1.4163,-1.4164,0,-1.4409,-1.4413,-1.4378,-1.4373,-1.4359,-1.4352,-1.4344,-1.4308,-1.4301,-1.4275,-1.4278,-1.4265,-1.4253,-1.4239,-1.4211,-1.4197,-1.4184,-1.4208,-1.4182,-1.419,-1.4183,-1.4182,-1.4182,-1.4214,-1.4215,-1.4216,-1.4216,0,-1.4474,-1.4458,-1.4447,-1.4431,-1.4422,-1.4408,-1.4391,-1.4389,-1.4349,-1.4343,-1.4331,-1.4322,-1.4303,-1.429,-1.4271,-1.4256,-1.4229,-1.4225,-1.4228,-1.4237,-1.4247,-1.424,-1.4164,-1.4223,-1.4223,-1.4222,-1.4222,-1.4222,-1.4526,-1.4527,-1.4502,-1.4491,-1.4475,-1.446,-1.4457,-1.4434,-1.4424,-1.4405,-1.4385,-1.4376,-1.4352,-1.4324,-1.431,-1.4302,-1.4288,-1.4293,-1.4294,-1.4295,-1.4299,-1.4249,-1.4299,-1.4299,-1.4299,-1.4298,-1.4298,0,-1.4588,-1.457,-1.456,-1.4537,-1.4529,-1.4504,-1.4484,-1.4478,-1.447,-1.4451,-1.4439,-1.4425,-1.4412,-1.4383,-1.4368,-1.4367,-1.4354,-1.4364,-1.4363,-1.4359,-1.4313,-1.4312,-1.4374,-1.4374,-1.4374,-1.4374,-1.4374,-1.4374,-1.462,-1.462,-1.4601,-1.4592,-1.4573,-1.4564,-1.4554,-1.454,-1.4524,-1.451,-1.4499,-1.448,-1.4456,-1.4438,-1.4425,-1.4416,-1.4412,-1.4425,-1.4413,-1.437,-1.4363,-1.4356,-1.4354,-1.4425,-1.4425,-1.446,-1.446,-1.446]}]]